Pipestone, MN

10:27 AM CDT on April 24, 2017 (GMT -0500)
Pipestone Municipal

Weather History for KPQN - December, 2012

Change the Weather History Date:

Monday, December 17, 2012

  Actual Average Record
Temperature  
Mean Temperature 24 °F -  
Max Temperature 26 °F 25 °F 44 °F (2001)
Min Temperature 21 °F 10 °F -20 °F (2016)
Degree Days  
Heating Degree Days 42    
Moisture  
Dew Point 24 °F    
Average Humidity 95    
Maximum Humidity 100    
Minimum Humidity 86    
Precipitation  
Precipitation 0.00 in - - ()
Sea Level Pressure  
Sea Level Pressure 29.62 in    
Wind  
Wind Speed 3 mph (SSE)    
Max Wind Speed 12 mph    
Max Gust Speed -    
Visibility 4 miles    
Events Snow    
Averages and records for this station are not official NWS values.
T = Trace of Precipitation, MM = Missing Value Source: NWS Daily Summary

Daily Weather History Graph

Daily Weather History Graph

Search for Another Location

Airport or City:

Trip Planner

Search our weather history database for the weather conditions in past years. The results will help you decide how hot, cold, wet, or windy it might be!

Date:

Astronomy

Dec. 17, 2012 Rise Set
Actual Time 7:54 AM CST 4:48 PM CST
Civil Twilight 7:21 AM CST 5:21 PM CST
Nautical Twilight 6:45 AM CST 5:58 PM CST
Astronomical Twilight 6:09 AM CST 6:33 PM CST
Moon 10:55 AM CST (12/17) 10:21 PM CST (12/17)
Length of Visible Light 10h 00m
Length of Day
8h 53m
Waxing Crescent, 25% of the Moon is Illuminated
Dec 17
Waxing Crescent
Dec 19
First Quarter
Dec 28
Full
Jan 4
Last Quarter
Jan 11
New

Hourly Weather History & Observations

Time (CST) Temp. Windchill Dew Point Humidity Pressure Visibility Wind Dir Wind Speed Gust Speed Precip Events Conditions
10:56 AM 21.2 °F - 21.2 °F 100% 29.69 in 3.0 mi Calm Calm - N/A Snow Light Snow
11:13 AM 21.2 °F - 21.2 °F 100% 29.68 in 2.0 mi Calm Calm - N/A Snow Light Snow
11:33 AM 23.0 °F - 21.2 °F 93% 29.67 in 4.0 mi Calm Calm - N/A Snow Light Snow
11:53 AM 23.0 °F - 21.2 °F 93% 29.66 in 3.0 mi Calm Calm - N/A Snow Light Snow
12:13 PM 23.0 °F 18.4 °F 21.2 °F 93% 29.65 in 4.0 mi SE 3.5 mph - N/A Snow Light Snow
12:34 PM 23.0 °F - 21.2 °F 93% 29.65 in 7.0 mi Calm Calm - N/A   Overcast
12:53 PM 23.0 °F - 21.2 °F 93% 29.64 in 7.0 mi Calm Calm - N/A   Overcast
1:13 PM 23.0 °F - 21.2 °F 93% 29.64 in 7.0 mi Calm Calm - N/A   Overcast
1:33 PM 23.0 °F 18.4 °F 21.2 °F 93% 29.63 in 7.0 mi South 3.5 mph - N/A   Overcast
1:53 PM 24.8 °F 20.5 °F 21.2 °F 86% 29.62 in 2.5 mi SSE 3.5 mph - N/A Snow Light Snow
2:13 PM 24.8 °F 20.5 °F 21.2 °F 86% 29.61 in 4.0 mi South 3.5 mph - N/A   Overcast
2:33 PM 24.8 °F 20.5 °F 21.2 °F 86% 29.61 in 5.0 mi SSE 3.5 mph - N/A   Overcast
2:54 PM 24.8 °F 19.1 °F 23.0 °F 93% 29.61 in 5.0 mi South 4.6 mph - N/A   Overcast
3:13 PM 24.8 °F 20.5 °F 23.0 °F 93% 29.61 in 5.0 mi South 3.5 mph - N/A   Overcast
3:33 PM 24.8 °F 19.1 °F 23.0 °F 93% 29.61 in 7.0 mi South 4.6 mph - N/A   Overcast
3:53 PM 24.8 °F 19.1 °F 23.0 °F 93% 29.62 in 7.0 mi South 4.6 mph - N/A   Overcast
6:33 PM 24.8 °F 20.5 °F 24.8 °F 100% 29.61 in 5.0 mi SSE 3.5 mph - N/A   Overcast
6:53 PM 24.8 °F 19.1 °F 24.8 °F 100% 29.61 in 5.0 mi SSE 4.6 mph - N/A   Overcast
7:13 PM 24.8 °F 19.1 °F 24.8 °F 100% 29.61 in 2.5 mi SSE 4.6 mph - N/A   Overcast
7:33 PM 24.8 °F 19.1 °F 24.8 °F 100% 29.61 in 1.8 mi SSE 4.6 mph - N/A   Overcast
7:53 PM 26.6 °F 21.2 °F 24.8 °F 93% 29.60 in 1.5 mi SSE 4.6 mph - N/A   Overcast
8:13 PM 26.6 °F 20.0 °F 24.8 °F 93% 29.60 in 1.8 mi SSE 5.8 mph - N/A   Overcast
8:33 PM 26.6 °F 19.1 °F 24.8 °F 93% 29.61 in 5.0 mi South 6.9 mph - N/A   Overcast
8:53 PM 26.6 °F 18.2 °F 24.8 °F 93% 29.60 in 4.0 mi South 8.1 mph - N/A   Overcast
9:13 PM 26.6 °F 20.0 °F 24.8 °F 93% 29.60 in 4.0 mi SSE 5.8 mph - N/A   Overcast
9:33 PM 26.6 °F 18.2 °F 26.6 °F 100% 29.60 in 2.5 mi South 8.1 mph - N/A   Overcast
9:54 PM 26.6 °F 18.2 °F 26.6 °F 100% 29.59 in 3.0 mi South 8.1 mph - N/A   Overcast
10:13 PM 26.6 °F 18.2 °F 26.6 °F 100% 29.59 in 3.0 mi South 8.1 mph - N/A   Overcast
10:33 PM 26.6 °F 17.5 °F 26.6 °F 100% 29.59 in 2.5 mi South 9.2 mph - N/A   Overcast
10:54 PM 26.6 °F 18.2 °F 26.6 °F 100% 29.57 in 4.0 mi South 8.1 mph - N/A   Overcast
11:13 PM 26.6 °F 18.2 °F 26.6 °F 100% 29.58 in 3.0 mi South 8.1 mph - N/A   Overcast
11:33 PM 26.6 °F 17.5 °F 26.6 °F 100% 29.57 in 3.0 mi South 9.2 mph - N/A   Overcast
11:53 PM 26.6 °F 16.2 °F 26.6 °F 100% 29.57 in 4.0 mi South 11.5 mph - N/A   Overcast